Volver al catálogo

STARLINK-2743

ActivoComunicacionesVLEO
NORAD 48682·PAYLOAD·🇺🇸 United States

Lanzado May 26, 2021 desde Cape Canaveral Space Force Station

Loading…

Próximos Pases (próximas 24 horas)

TLE

ActualizadoSource: CelesTrak SupGP

Época: Sep 15, 2026, 00:53 UTC

1 48682C 21044AW  26258.03729167  .00015548  00000+0  49996-3 0  2587
2 48682  53.1587 263.8219 0001434  96.0511   2.1941 15.31694388    10

Sigue STARLINK-2743 en tiempo real con AllMySat

Download on the App Store